Regional Weather Roundup
Issued by NWS

Home | Current Version | Previous Version | Graphics & Text | Print | Product List | Glossary On
Versions: 1 2 3 4 5 6 7 8 9 10 11 12 13 14 15 16 17 18 19 20 21 22 23 24 25 26 27 28 29 30 31 32 33 34 35 36 37 38 39 40 41 42 43 44 45 46 47 48 49 50
000
ASUS43 KMPX 301010
RWRMN
WEATHER ROUNDUP FOR MINNESOTA
NATIONAL WEATHER SERVICE TWIN CITIES/CHANHASSEN MN
500 AM CDT TUE SEP 30 2014


NOTE: "FAIR" INDICATES FEW OR NO CLOUDS BELOW 12,000 FEET WITH NO
SIGNIFICANT WEATHER AND/OR OBSTRUCTIONS TO VISIBILITY. N/A MEANS
CURRENT SKY AND/OR WEATHER CONDITIONS ARE NOT AVAILABLE.

MNZ060>063-068>070-301100-
   Twin Cities Metro

CITY           SKY/WX    TMP DP  RH WIND       PRES   REMARKS
TWIN CITIES    CLOUDY    43  39  86 E9        30.10S
ST PAUL        CLOUDY    43  39  86 E10       30.12F
CRYSTAL        CLOUDY    44  38  79 E9        30.09F
BLAINE         CLOUDY    45  43  93 E10       30.10F
LAKEVILLE      CLOUDY    41  39  93 E8        30.10R
EDEN PRAIRIE   CLOUDY    43  39  86 E12       30.09R
SOUTH ST PAUL  CLOUDY    44  39  84 E8        30.11S
LAKE ELMO      CLOUDY    43  39  87 E8        30.11F
$$
MNZ001>005-007-008-013>017-022>024-027-028-301100-
   Northwest Minnesota

CITY           SKY/WX    TMP DP  RH WIND       PRES   REMARKS
BEMIDJI        CLOUDY    43  40  91 SE10      30.06S
HALLOCK        CLEAR     43  41  93 SE9       30.02F
ROSEAU         MOCLDY    43  37  81 E6        30.06F
WARROAD        CLOUDY    43  39  87 SE12      30.08S
THIEF RVR FALL CLEAR     41  39  93 E12       30.02F
CROOKSTON      PTCLDY    39  37  93 SE6       30.02F
FOSSTON        PTCLDY    41  39  93 SE8       30.03F
DETROIT LAKES  CLOUDY    43  41  93 SE12G20   30.03F
PARK RAPIDS    CLOUDY    41  39  93 SE12      30.05F
MAHNOMEN       CLOUDY    43  40  91 SE13      30.02F
$$
MNZ006-009>011-018-025>026-301100-
   North Central Minnesota

CITY           SKY/WX    TMP DP  RH WIND       PRES   REMARKS
BAUDETTE       CLOUDY    43  39  86 SE8       30.10S
FLAG ISLAND    CLOUDY    45  43  93 SE8       30.09R
INTL FALLS     CLOUDY    43  40  89 SE8       30.12S
WASKISH        CLOUDY    45  43  93 CALM      30.09S
BIG FORK       CLOUDY    43  39  87 SE7       30.12S
LONGVILLE      CLOUDY    41  39  93 SE8       30.09F
GRAND RAPIDS   CLOUDY    41  37  87 SE6       30.12R
CRANE LAKE     CLOUDY    39  39 100 CALM      30.16F
ORR            CLOUDY    41  37  87 SE8       30.11S
COOK           CLOUDY    41  39  93 SE5       30.14S
WALKER         CLOUDY    42  39  91 SE6       30.08S
$$
MNZ012-019>021-037-301100-
   Northeast Minnesota

CITY           SKY/WX    TMP DP  RH WIND       PRES   REMARKS
DULUTH         CLOUDY    42  38  85 E12       30.13F
ELY            CLOUDY    39  37  93 SE6       30.15F
HIBBING        CLOUDY    43  39  86 E8        30.13F
DULUTH HARBOR  CLOUDY    46  43  87 E12       30.16F
TWO HARBORS    CLOUDY    43  37  81 E8        30.14F
SILVER BAY     PTCLDY    39  39 100 NE5       30.15S
GRAND MARAIS     N/A     44  37  76 NE3       30.18S
G MARAIS ARPRT CLOUDY    36  32  87 CALM      30.16S
$$
MNZ029>031-032-039>041-046>048-054>057-064-301100-
   West Central Minnesota

CITY           SKY/WX    TMP DP  RH WIND       PRES   REMARKS
FERGUS FALLS   CLOUDY    43  39  87 SE14      30.02F
WHEATON        CLEAR     41  39  93 E12       30.01F
MORRIS         CLEAR     45  43  93 E12       30.00F
ALEXANDRIA     CLOUDY    42  41  96 SE13      30.04F
ELBOW LAKE     CLOUDY    43  42  97 E10       30.01F
WADENA         CLOUDY    41  39  93 SE13      30.05S
GLENWOOD       CLOUDY    41  39  93 E13G20    30.04F
APPLETON       MOCLDY    45  43  93 E13       30.00F
BENSON         MOCLDY    43  41  93 SE10G16   30.02F
ORTONVILLE     CLOUDY    45  41  87 SE14      29.98F
MADISON        PTCLDY    48  46  93 E12       29.99F
WILLMAR        CLOUDY    45  41  87 E10       30.05F
$$
MNZ033>034-036-042>043-049>051-058-059-301100-
   Central Minnesota

CITY           SKY/WX    TMP DP  RH WIND       PRES   REMARKS
ST CLOUD       CLOUDY    43  39  86 E10       30.09F
SAUK CENTRE    CLOUDY    40  39  97 E13       30.06F
PAYNESVILLE    CLOUDY    39  38  97 NE12      30.06F
AITKIN         CLOUDY    43  37  81 E7        30.10S
PINE RIVER     CLOUDY    41  39  93 SE7       30.12S
BRAINERD       CLOUDY    41  39  93 SE8       30.10F
STAPLES        CLOUDY    41  39  93 E8        30.07F
LONG PRAIRIE   CLOUDY    37  37 100 E10       30.06F
LITTLE FALLS   CLOUDY    39  36  87 E8        30.09F
LITCHFIELD     CLOUDY    45  43  93 E13       30.06F
BUFFALO        CLOUDY    43  39  85 E13       30.09F
MAPLE LAKE     CLOUDY    43  42  94 NE12      30.09F
$$
MNZ037-044-045-052-053-301100-
   East Central Minnesota

CITY           SKY/WX    TMP DP  RH WIND       PRES   REMARKS
PRINCETON      CLOUDY    43  41  93 E8        30.10F
MORA           CLOUDY    39  36  87 E6        30.14S
CAMBRIDGE      CLOUDY    45  36  70 E5        30.10S
RUSH CITY      FLURRIES  42  39  90 E5        30.12F
MOOSE LAKE     CLOUDY    41  37  87 E7        30.12S
HINCKLEY       CLOUDY    43  41  93 E6        30.13S
CLOQUET        CLOUDY    41  37  87 E9G16     30.13F
MCGREGOR       CLOUDY    41  37  87 E8        30.13S
$$
MNZ071>073-080-081-089-090-097-098-301100-
   Southwest Minnesota

CITY           SKY/WX    TMP DP  RH WIND       PRES   REMARKS
MONTEVIDEO     CLOUDY    43  43 100 SE12      30.02F
GRANITE FALLS  PTCLDY    44  42  93 E9G17     30.03S
CANBY          CLOUDY    46  45  93 E14       29.99F
MARSHALL       CLOUDY    46  41  81 SE13G18   29.98F
REDWOOD FALLS  MOCLDY    44  42  93 E12       30.02F
OLIVIA         CLOUDY    43  39  87 E12G18    30.02F
PIPESTONE      PTCLDY    50  46  87 SE14G20   29.93F
WINDOM         PTCLDY    46  45  93 E10       30.00S
WORTHINGTON    PTCLDY    48  46  93 E10       29.98F
JACKSON        CLEAR     46  45  93 E9        30.00F
TRACY          CLOUDY    47  46  95 E9G17     29.99F
SLAYTON        MOCLDY    48  47  97 CALM      29.98F
$$
MNZ065>067-074>077-082>085-091>093-301100-
   South Central Minnesota

CITY           SKY/WX    TMP DP  RH WIND       PRES   REMARKS
MANKATO        PTCLDY    43  37  81 E14       30.04F
NEW ULM        CLEAR     43  43 100 E9        30.03F
ST JAMES       CLEAR     46  43  87 E9        30.03F
FAIRMONT       PTCLDY    46  41  81 E7        30.01F
GLENCOE        CLOUDY    43  39  86 E13G18    30.07F
FARIBAULT      CLOUDY    45  39  81 E9        30.08S
OWATONNA       CLOUDY    43  39  87 E15       30.06F
WASECA         MOCLDY    41  36  81 E13G18    30.06F
ALBERT LEA     MOCLDY    45  45 100 E10       30.03F
$$
MNZ078>079-086>088-094>096-301100-
   Southeast Minnesota

CITY           SKY/WX    TMP DP  RH WIND       PRES   REMARKS
ROCHESTER      CLOUDY    43  42  97 E7        30.08S
RED WING       CLOUDY    43  37  81 E8        30.10S
STANTON        CLOUDY    43  39  88 E9        30.09R
DODGE CENTER   CLOUDY    43  43 100 E13       30.07S
WINONA         CLOUDY    43  39  87 E8        30.12S
AUSTIN         CLOUDY    45  43  93 E12       30.05F
PRESTON        CLOUDY    43  41  93 E6        30.08S
$$
ABBREVIATIONS USED IN REMARKS
   TC - TEMPERATURES IN CELSIUS
  WCI - WIND CHILL INDEX
   HX - HEAT INDEX
  VSB - VISIBILITY
$$


USA.gov is the U.S. government's official web portal to all federal, state and local government web resources and services.